STARLINK-4047, 53243

Orbit data source: Space-Track

STARLINK-4047, 53243 is a payload satellite owned by SpaceX/Seattle (US) in LEO that was launched on Sun, 24 Jul 2022 UTC via an FALCON 9 launch vehicle from the Air Force Eastern Test Range (AFETR). Payload-class satellites include a variety of spacecraft equipped with specific instruments for various scientific and technological missions. These include communications satellites like Starlink; space stations such as the ISS; scientific satellites like the Hubble; Earth observation satellites from companies like Planet Labs, Umbra, and HawkEye 360; GPS; miniature CubeSats for education and research; and military/defense satellites.

Loading next visibility...
Identifier
53243, 2022-086B
Orbit
LEO
Country
Flag of USUS
Related business
Manufacturer
SpaceX/Seattle
Mission
Operational Commercial Communications
Bus & Motor
STARLINK, Unknown motor
Mass
297 kg wet, ~275 kg dry
Launch date (UTC)
2022-07-24 (4 years ago)
Launch vehicle
FALCON 9
Launch site
Air Force Eastern Test Range (AFETR)
Object type
Payload
Rocket body
Debris
Shape & HBR
Box + 1 Pan, 10.1 m
Radar Cross Section
13.562 m², Large (>1 m²)

Expand to show TLE details & history
Last TLE update: 2 days ago

TLE from 2 days ago
0 STARLINK-4047
1 53243U 22086B   26171.21517259  .00000009  00000-0  18653-4 0  9990
2 53243  53.1615 103.4461 0001427  94.0940 266.0214 15.08841516216749
Epoch: 2026-06-20T05:09Z
TLE epoch observation values (Epoch: 2026-06-20T05:09:50.911Z)
Latitude
-0.00008°
Longitude
117.55091°
Altitude
540.699 km
Speed
7.593 km/s
True Right ascension
06h 53m 47s
True Declination
0° 00' 00"
Sunlit
Object was in daylight at epoch
Visualization orbit readout
Latitude
Unknown
Longitude
Unknown
Altitude
Unknown
Speed
Unknown
Apparent Right ascension
Unknown
Apparent Declination
Unknown
Sunlit
N/A
Visualization observer readout
Local Sidereal Time
21:24:24
Azimuth
Unknown
Elevation
Unknown
Doppler factor
Unknown
Orbital elements
Apogee altitude
540.98 km
Perigee altitude
539.005 km
Semi-major axis
6,918.13 km
Eccentricity
0.00014
Inclination
53.1615°
RAAN
103.4461°
Arg. of periapsis
94.094°
True anomaly
266.00509°
Mean anomaly
266.0214°
Eccentric anomaly
266.01324°
Mean motion
3.7719 °/min
Orbital period
95.44 mins
BSTAR
0.000018653
Loading maneuver chart data...
Computing Atmospheric mass density...
Loading historical data...
Loading historical data...
Loading historical data...
Loading historical data...
Loading historical data...
Loading historical data...
Loading historical data...

Documentation

Showing up to 5 results
|